Weather History for KSUE - January, 2013

Change the Weather History Date:

Saturday, January 12, 2013

  Actual Average Record
Temperature  
Mean Temperature 35 °F -  
Max Temperature 46 °F 24 °F 46 °F (2013)
Min Temperature 24 °F 8 °F -21 °F (1912)
Degree Days  
Heating Degree Days 30    
Moisture  
Dew Point 29 °F    
Average Humidity 74    
Maximum Humidity 100    
Minimum Humidity 60    
Precipitation  
Precipitation 0.00 in - - ()
Sea Level Pressure  
Sea Level Pressure 29.73 in    
Wind  
Wind Speed 15 mph (SW)    
Max Wind Speed 26 mph    
Max Gust Speed 36 mph    
Visibility 9 miles    
Events      
Averages and records for this station are not official NWS values.
T = Trace of Precipitation, MM = Missing Value Source: NWS Daily Summary

Daily Weather History Graph

Daily Weather History Graph

Search for Another Location

Airport or City:

Trip Planner

Search our weather history database for the weather conditions in past years. The results will help you decide how hot, cold, wet, or windy it might be!

Date:

Astronomy

Jan. 12, 2013 Rise Set
Actual Time 7:25 AM CST 4:31 PM CST
Civil Twilight 6:52 AM CST 5:04 PM CST
Nautical Twilight 6:15 AM CST 5:40 PM CST
Astronomical Twilight 5:40 AM CST 6:15 PM CST
Moon 7:39 AM CST (1/12) 6:05 PM CST (1/12)
Length of Visible Light 10h 12m
Length of Day
9h 06m
New Moon, 1% of the Moon is Illuminated
Jan 12
New Moon
Jan 18
First Quarter
Jan 26
Full
Feb 3
Last Quarter
Feb 10
New

Hourly Weather History & Observations

Time (CST) Temp. Windchill Dew Point Humidity Pressure Visibility Wind Dir Wind Speed Gust Speed Precip Events Conditions
12:15 AM 44.6 °F 37.4 °F 42.8 °F 93% 29.56 in 1.5 mi South 16.1 mph 21.9 mph N/A   Overcast
12:35 AM 44.6 °F 37.8 °F 42.8 °F 93% 29.57 in 2.0 mi South 15.0 mph - N/A   Overcast
12:55 AM 44.6 °F 37.4 °F 42.8 °F 93% 29.56 in 1.5 mi South 16.1 mph - N/A   Overcast
1:15 AM 44.6 °F 37.4 °F 42.8 °F 93% 29.57 in 2.0 mi South 16.1 mph 21.9 mph N/A   Overcast
1:35 AM 44.6 °F 38.1 °F 42.8 °F 93% 29.57 in 2.0 mi South 13.8 mph - N/A   Overcast
1:55 AM 42.8 °F 35.8 °F 42.8 °F 100% 29.57 in 2.5 mi South 13.8 mph - N/A   Overcast
2:15 AM 42.8 °F 35.8 °F 41.0 °F 93% 29.57 in 3.0 mi South 13.8 mph - N/A   Overcast
2:35 AM 42.8 °F 36.2 °F 41.0 °F 93% 29.56 in 4.0 mi South 12.7 mph 20.7 mph N/A   Mostly Cloudy
2:55 AM 42.8 °F 35.8 °F 41.0 °F 93% 29.56 in 4.0 mi South 13.8 mph - N/A   Mostly Cloudy
3:15 AM 42.8 °F 35.8 °F 41.0 °F 93% 29.55 in 4.0 mi South 13.8 mph 20.7 mph N/A   Mostly Cloudy
3:35 AM 42.8 °F 36.2 °F 41.0 °F 93% 29.55 in 5.0 mi South 12.7 mph - N/A   Scattered Clouds
3:55 AM 42.8 °F 36.2 °F 41.0 °F 93% 29.54 in 5.0 mi South 12.7 mph - N/A   Clear
4:15 AM 42.8 °F 36.2 °F 39.2 °F 87% 29.54 in 5.0 mi South 12.7 mph - N/A   Clear
4:35 AM 42.8 °F 36.2 °F 39.2 °F 87% 29.54 in 7.0 mi South 12.7 mph - N/A   Clear
4:55 AM 42.8 °F 35.8 °F 39.2 °F 87% 29.55 in 10.0 mi South 13.8 mph 21.9 mph N/A   Clear
5:15 AM 44.6 °F 38.8 °F 39.2 °F 81% 29.55 in 10.0 mi South 11.5 mph 19.6 mph N/A   Clear
5:35 AM 44.6 °F 38.1 °F 41.0 °F 87% 29.54 in 10.0 mi South 13.8 mph 18.4 mph N/A   Clear
5:55 AM 44.6 °F 38.8 °F 41.0 °F 87% 29.55 in 10.0 mi South 11.5 mph - N/A   Clear
6:15 AM 44.6 °F 38.8 °F 39.2 °F 81% 29.55 in 10.0 mi South 11.5 mph - N/A   Partly Cloudy
6:35 AM 44.6 °F 39.2 °F 39.2 °F 81% 29.56 in 10.0 mi South 10.4 mph - N/A   Mostly Cloudy
6:55 AM 42.8 °F 37.0 °F 39.2 °F 87% 29.57 in 10.0 mi SSW 10.4 mph - N/A   Mostly Cloudy
7:15 AM 46.4 °F 39.8 °F 39.2 °F 76% 29.58 in 10.0 mi SW 16.1 mph 24.2 mph N/A   Partly Cloudy
7:35 AM 46.4 °F 39.5 °F 39.2 °F 76% 29.59 in 10.0 mi SW 17.3 mph 21.9 mph N/A   Scattered Clouds
7:55 AM 46.4 °F 40.1 °F 39.2 °F 76% 29.60 in 10.0 mi SW 15.0 mph - N/A   Mostly Cloudy
8:15 AM 46.4 °F 39.8 °F 37.4 °F 71% 29.60 in 10.0 mi SW 16.1 mph 25.3 mph N/A   Scattered Clouds
8:35 AM 44.6 °F 36.9 °F 37.4 °F 76% 29.61 in 10.0 mi SW 18.4 mph 24.2 mph N/A   Mostly Cloudy
8:55 AM 44.6 °F 36.6 °F 37.4 °F 76% 29.63 in 10.0 mi SW 19.6 mph 29.9 mph N/A   Mostly Cloudy
9:15 AM 44.6 °F 36.9 °F 35.6 °F 71% 29.64 in 10.0 mi SW 18.4 mph 29.9 mph N/A   Scattered Clouds
9:35 AM 42.8 °F 33.3 °F 32.0 °F 66% 29.66 in 10.0 mi SW 24.2 mph 32.2 mph N/A   Scattered Clouds
9:55 AM 42.8 °F 34.3 °F 30.2 °F 61% 29.67 in 10.0 mi SW 19.6 mph 29.9 mph N/A   Mostly Cloudy
10:15 AM 41.0 °F 30.5 °F 30.2 °F 65% 29.69 in 10.0 mi WSW 26.5 mph 35.7 mph N/A   Overcast
10:35 AM 39.2 °F 29.3 °F 28.4 °F 65% 29.70 in 10.0 mi WSW 20.7 mph 35.7 mph N/A   Mostly Cloudy
10:55 AM 37.4 °F 27.2 °F 28.4 °F 70% 29.71 in 10.0 mi WSW 19.6 mph 31.1 mph N/A   Mostly Cloudy
11:15 AM 37.4 °F 26.9 °F 26.6 °F 65% 29.71 in 10.0 mi West 20.7 mph 33.4 mph N/A   Mostly Cloudy
11:55 AM 35.6 °F 23.7 °F 24.8 °F 65% 29.75 in 10.0 mi WSW 24.2 mph 35.7 mph N/A   Mostly Cloudy
12:15 PM 35.6 °F 24.0 °F 24.8 °F 65% 29.75 in 10.0 mi WSW 23.0 mph 32.2 mph N/A   Scattered Clouds
12:55 PM 35.6 °F 25.5 °F 24.8 °F 65% 29.77 in 10.0 mi WSW 17.3 mph 28.8 mph N/A   Partly Cloudy
1:35 PM 35.6 °F 24.2 °F 23.0 °F 60% 29.78 in 10.0 mi WSW 21.9 mph 27.6 mph N/A   Partly Cloudy
1:55 PM 35.6 °F 25.2 °F 23.0 °F 60% 29.79 in 10.0 mi WSW 18.4 mph 24.2 mph N/A   Clear
2:15 PM 33.8 °F 23.9 °F 24.8 °F 70% 29.81 in 10.0 mi WSW 15.0 mph 21.9 mph N/A   Partly Cloudy
2:35 PM 33.8 °F 24.3 °F 23.0 °F 65% 29.83 in 10.0 mi WSW 13.8 mph - N/A   Partly Cloudy
2:55 PM 33.8 °F 25.3 °F 24.8 °F 70% 29.84 in 10.0 mi SW 11.5 mph 16.1 mph N/A   Clear
3:15 PM 33.8 °F 23.5 °F 23.0 °F 65% 29.85 in 10.0 mi WSW 16.1 mph 20.7 mph N/A   Clear
3:35 PM 33.8 °F 24.3 °F 21.2 °F 60% 29.85 in 10.0 mi SW 13.8 mph - N/A   Clear
3:55 PM 32.0 °F 22.1 °F 21.2 °F 64% 29.85 in 10.0 mi WSW 13.8 mph - N/A   Clear
4:15 PM 32.0 °F 23.0 °F 21.2 °F 64% 29.86 in 10.0 mi WSW 11.5 mph - N/A   Clear
4:35 PM 30.2 °F 21.3 °F 21.2 °F 69% 29.87 in 10.0 mi WSW 10.4 mph - N/A   Clear
4:55 PM 30.2 °F 20.2 °F 21.2 °F 69% 29.87 in 10.0 mi WSW 12.7 mph 16.1 mph N/A   Clear
5:15 PM 30.2 °F 20.8 °F 21.2 °F 69% 29.88 in 10.0 mi WSW 11.5 mph - N/A   Clear
5:35 PM 30.2 °F 19.8 °F 19.4 °F 64% 29.90 in 10.0 mi WSW 13.8 mph - N/A   Clear
5:55 PM 30.2 °F 19.8 °F 19.4 °F 64% 29.90 in 10.0 mi WSW 13.8 mph 19.6 mph N/A   Clear
6:15 PM 28.4 °F 16.6 °F 19.4 °F 69% 29.91 in 10.0 mi WSW 16.1 mph 20.7 mph N/A   Clear
6:35 PM 28.4 °F 18.5 °F 19.4 °F 69% 29.90 in 10.0 mi WSW 11.5 mph - N/A   Clear
7:15 PM 28.4 °F 17.5 °F 17.6 °F 64% 29.89 in 10.0 mi West 13.8 mph 17.3 mph N/A   Partly Cloudy
7:35 PM 26.6 °F 15.7 °F 15.8 °F 64% 29.88 in 10.0 mi West 12.7 mph - N/A   Clear
7:55 PM 26.6 °F 16.8 °F 17.6 °F 69% 29.89 in 10.0 mi West 10.4 mph 17.3 mph N/A   Clear
8:15 PM 26.6 °F 16.8 °F 17.6 °F 69% 29.92 in 10.0 mi WSW 10.4 mph - N/A   Clear
8:35 PM 26.6 °F 17.5 °F 15.8 °F 64% 29.92 in 10.0 mi West 9.2 mph 16.1 mph N/A   Clear
8:55 PM 26.6 °F 16.2 °F 17.6 °F 69% 29.92 in 10.0 mi West 11.5 mph - N/A   Clear
9:15 PM 26.6 °F 17.5 °F 17.6 °F 69% 29.92 in 10.0 mi WNW 9.2 mph - N/A   Clear
9:35 PM 26.6 °F 17.5 °F 17.6 °F 69% 29.94 in 10.0 mi West 9.2 mph - N/A   Partly Cloudy
9:55 PM 26.6 °F 17.5 °F 15.8 °F 64% 29.95 in 10.0 mi WSW 9.2 mph - N/A   Scattered Clouds
10:15 PM 26.6 °F 17.5 °F 15.8 °F 64% 29.96 in 10.0 mi WSW 9.2 mph - N/A   Partly Cloudy
10:35 PM 24.8 °F 16.1 °F 14.0 °F 64% 29.94 in 10.0 mi West 8.1 mph - N/A   Clear
10:55 PM 24.8 °F 14.6 °F 15.8 °F 69% 29.93 in 10.0 mi West 10.4 mph - N/A   Partly Cloudy
11:15 PM 24.8 °F 14.0 °F 15.8 °F 69% 29.94 in 10.0 mi West 11.5 mph - N/A   Clear
11:35 PM 24.8 °F 14.0 °F 15.8 °F 69% 29.92 in 10.0 mi West 11.5 mph - N/A   Clear
11:55 PM 24.8 °F 13.4 °F 15.8 °F 69% 29.91 in 10.0 mi WNW 12.7 mph - N/A   Partly Cloudy